カタログに戻る

FASAT B

運用中科学SSO
NORAD 25395·PAYLOAD·🇨🇱 Chile

打ち上げ Jul 10, 1998 から Baikonur Cosmodrome

Loading…

次のパス (今後24時間)

TLE

最新Source: Space-Track

元期: Sep 14, 2026, 21:54 UTC

1 25395U 98043B   26257.91272247  .00000031  00000-0  32072-4 0  9996
2 25395  98.9799 250.0331 0002381 188.8165 171.2972 14.26534991465639

AllMySatでFASAT Bをリアルタイム追跡

Download on the App Store